Location: ??????
(38.1303°N, 24.0039°E)
Time: 00:20:23
(UTC+00:00)

IRIDIUM 104 - Pass Details

Date: 20 June 2021
Orbit: 776 x 779 km, 86.4° (Epoch: 28 July)

Event Time Altitude Azimuth Distance (km) Brightness Sun altitude
Rises 00:58:48 0° 356° (N) 3,267 8.3 -18.7°
Reaches altitude 10° 01:01:09 10° 355° (N) 2,335 7.5 -18.4°
Maximum altitude 01:06:23 79° 269° (W) 795 4.2 -17.8°
Enters shadow 01:09:32 24° 186° (S) 1,547 5.4 -17.4°
